GFSSW_con_mlcape_132.txt.gz
CAPE
2 1 0 0 1 2 2 1 1 1 1 1 1 1 0 0 0 0 0 0 0 0 0 0 0 0 0 0 0 27 53 0 5 10 28 97 53 72 120 69 57 163 31 91 272
0 0 0 1 1 2 1 0 1 1 1 0 0 0 0 0 0 0 0 0 0 0 0 0 0 0 0 0 0 12 32 5 0 11 18 69 96 89 68 49 79 22 98 123 166
0 0 0 0 0 0 0 1 0 0 0 0 0 0 0 0 0 0 0 0 0 0 0 0 0 0 0 0 0 0 7 26 0 21 7 56 104 62 76 30 7 0 49 97 144
0 0 0 0 0 0 0 0 0 0 0 0 0 0 0 0 0 0 0 0 0 0 0 0 0 0 0 0 0 0 166 45 12 5 63 70 109 39 38 94 40 23 81 104 129
0 0 0 0 0 0 0 0 0 0 0 0 0 0 0 0 0 0 0 0 0 0 0 0 0 0 0 0 7 0 131 124 188 17 55 94 63 38 44 94 118 93 98 108 105
0 0 0 0 0 0 0 0 0 0 0 0 0 0 0 0 0 0 0 0 0 0 0 0 0 0 0 0 0 299 159 103 110 23 23 54 72 35 19 116 112 100 89 80 88
0 0 0 0 0 0 0 0 0 0 0 0 0 0 0 0 0 0 0 0 0 0 0 0 0 0 0 16 224 193 42 119 77 71 114 64 44 1 81 95 124 110 107 107 107
0 0 0 0 0 0 0 0 0 0 0 0 0 0 0 0 0 0 0 0 0 0 0 0 0 0 0 169 281 187 93 61 61 100 29 65 28 41 102 102 110 138 158 136 121
0 0 0 0 0 0 0 0 0 0 0 0 0 0 0 0 0 0 0 0 0 0 0 0 0 0 1 12 36 56 17 58 65 67 21 10 10 38 83 90 77 123 112 112 123
0 0 0 0 0 0 0 0 0 0 0 0 0 0 0 0 0 0 0 0 0 0 0 0 0 0 0 0 0 5 29 34 60 55 33 3 0 41 78 80 81 96 131 77 91
0 0 0 0 0 0 0 0 0 0 0 0 0 0 0 0 0 0 0 0 0 0 0 0 0 0 0 0 0 0 6 58 74 28 7 26 17 3 39 67 68 67 65 48 70
0 0 0 0 0 0 0 0 0 0 0 0 0 0 0 0 0 0 0 0 0 0 0 0 0 0 0 0 0 0 0 9 20 0 0 2 17 39 20 36 18 50 56 25 24
0 0 0 0 0 0 0 0 0 0 0 0 0 0 0 0 0 0 0 0 0 0 0 0 0 0 0 0 0 0 0 31 16 0 0 8 0 26 24 42 6 0 21 29 45
0 0 0 0 0 0 0 0 0 0 0 0 0 0 0 0 0 0 0 0 0 0 0 0 0 0 0 0 0 0 9 10 4 0 0 0 3 1 40 10 10 0 0 11 17
0 0 0 0 0 0 0 0 0 0 0 0 0 0 0 0 0 0 0 0 0 0 0 0 0 0 0 0 0 0 76 3 13 38 13 0 0 0 19 25 19 0 0 0 14
0 0 0 0 0 0 0 0 0 0 0 0 0 0 0 0 0 0 0 0 0 0 0 0 0 0 0 0 0 194 108 85 20 35 14 29 2 0 4 14 3 0 0 0 0
0 0 0 0 0 0 0 0 0 0 0 0 0 0 0 0 0 0 0 0 0 0 0 0 0 28 255 119 327 150 31 1 0 8 4 3 20 9 1 2 19 2 0 0 0
0 0 0 0 0 0 0 0 0 0 0 0 0 0 0 0 0 0 0 0 0 0 0 0 0 63 407 255 121 198 1 0 0 0 0 25 0 0 2 4 10 16 4 3 11
0 0 0 0 0 0 0 0 0 0 0 0 0 0 0 0 0 0 0 0 0 0 0 0 0 0 0 88 213 164 30 43 59 28 2 27 3 3 0 0 0 0 1 0 1
0 0 0 0 0 0 0 0 0 0 0 0 0 0 0 0 0 0 1 0 0 0 0 0 0 0 0 93 169 151 85 119 88 6 1 17 0 0 0 5 5 0 0 0 0
0 0 0 0 0 0 0 0 0 0 0 0 0 0 0 0 0 0 0 0 0 0 0 0 0 0 0 0 2 2 11 0 4 21 37 16 1 15 29 13 28 93 42 2 1
0 0 0 0 0 0 0 0 0 0 0 0 0 0 0 0 0 0 0 0 0 0 0 0 0 0 1 0 0 0 0 0 0 0 1 55 0 120 102 101 138 148 50 22 0
0 0 0 0 0 0 0 0 0 0 0 0 0 0 0 0 0 0 0 0 0 0 0 0 0 0 0 0 0 32 77 48 0 0 0 0 0 149 161 194 153 114 38 5 28
0 0 0 0 0 0 0 0 0 0 0 0 0 0 0 0 0 0 0 0 0 0 0 0 0 0 0 0 0 41 34 111 0 0 0 0 0 124 161 156 126 113 59 33 47
0 0 0 0 0 0 0 0 0 0 0 0 0 0 0 0 0 0 0 0 0 0 0 0 0 0 0 0 109 73 46 78 85 200 0 0 0 125 190 123 144 107 110 98 82
0 0 0 0 0 0 0 0 0 0 0 0 0 0 0 0 0 0 0 0 0 0 0 0 0 6 15 119 140 103 68 123 141 122 284 180 26 172 46 67 131 163 148 138 127
0 0 0 0 0 0 0 0 0 0 0 0 0 0 0 0 0 0 0 0 0 0 0 0 0 0 0 48 47 38 41 92 169 139 135 90 96 85 98 115 121 57 86 182 255

GFSSW_con_mlcape_135.txt.gz
CAPE
1 1 0 0 1 1 1 1 1 1 1 0 0 0 0 0 0 0 0 0 0 0 0 0 0 0 0 0 0 107 44 31 28 21 34 85 104 159 137 0 68 217 60 107 416
0 0 1 1 1 1 1 1 0 0 0 0 0 0 0 0 0 0 0 0 0 0 0 0 0 0 0 0 0 76 50 14 35 0 15 82 149 113 32 86 111 102 169 277 348
0 0 0 0 0 0 0 0 0 0 0 0 0 0 0 0 0 0 0 0 0 0 0 0 0 0 0 0 0 0 34 28 21 8 28 56 115 111 3 32 80 0 7 183 268
0 0 0 0 0 0 0 0 0 0 0 0 0 0 0 0 0 0 0 0 0 0 0 0 0 0 0 0 0 0 195 88 59 39 39 49 143 111 34 82 22 8 29 129 174
0 0 0 0 0 0 0 0 0 0 0 0 0 0 0 0 0 0 0 0 0 0 0 0 0 0 0 0 5 4 130 181 60 30 65 21 68 72 70 114 92 107 128 135 213
0 0 0 0 0 0 0 0 0 0 0 0 0 0 0 0 0 0 0 0 0 0 0 0 0 0 0 19 12 282 252 238 143 106 107 13 61 16 70 148 81 129 164 195 228
0 0 0 0 0 0 0 0 0 0 0 0 0 0 0 0 0 0 0 0 0 0 0 0 0 0 0 264 369 337 129 184 157 108 105 32 46 34 119 162 105 152 189 213 205
0 0 0 0 0 0 0 0 0 0 0 0 0 0 0 0 0 0 0 0 0 0 0 0 0 0 13 346 379 267 172 59 91 137 103 2 3 22 70 166 114 187 197 200 205
0 0 0 0 0 0 0 0 0 0 0 0 0 0 0 0 0 0 0 0 0 0 0 0 0 0 160 189 114 51 4 76 107 102 37 26 15 69 66 121 64 166 209 233 242
0 0 0 0 0 0 0 0 0 0 0 0 0 0 0 0 0 0 0 0 0 0 0 0 0 0 2 0 0 53 50 90 82 51 28 62 4 42 109 134 108 175 208 269 256
0 0 0 0 0 0 0 0 0 0 0 0 0 0 0 0 0 0 0 0 0 0 0 0 0 0 0 0 0 0 81 3 67 1 8 0 30 36 42 100 67 58 162 217 238
0 0 0 0 0 0 0 0 0 0 0 0 0 0 0 0 0 0 0 0 0 0 0 0 0 0 0 0 0 0 0 24 25 0 0 0 0 13 41 67 122 142 133 187 203
0 0 0 0 0 0 0 0 0 0 0 0 0 0 0 0 0 0 0 0 0 0 0 0 0 0 0 0 0 0 0 33 39 0 11 0 2 30 46 55 87 88 141 117 157
0 0 0 0 0 0 0 0 0 0 0 0 0 0 0 0 0 0 0 0 0 0 0 0 0 0 0 0 0 0 0 155 25 17 0 0 0 0 27 48 28 60 25 106 108
0 0 0 0 0 0 0 0 0 0 0 0 0 0 0 0 0 0 0 0 0 0 0 0 0 0 0 0 0 30 187 134 76 51 0 0 0 10 16 58 20 25 33 22 82
0 0 0 0 0 0 0 0 0 0 0 0 0 0 0 0 0 0 0 0 0 0 0 0 0 0 0 6 0 375 187 112 82 22 0 0 0 5 14 12 50 20 72 1 19
0 0 0 0 0 0 0 0 0 0 0 0 0 0 0 0 0 0 0 0 0 0 0 0 0 0 218 116 404 385 110 1 8 31 3 2 0 2 15 8 24 24 85 35 16
0 0 0 0 0 0 0 0 0 0 0 0 0 0 0 0 0 0 0 0 0 0 0 0 0 0 464 372 205 222 8 7 26 1 0 20 6 3 7 10 6 26 67 63 8
0 0 0 0 0 0 0 0 0 0 0 0 0 0 0 0 0 0 0 0 0 0 0 0 0 0 11 590 505 371 119 97 111 70 9 2 13 20 0 0 0 12 4 40 11
0 0 0 0 0 0 0 0 0 0 0 0 0 0 0 0 0 0 0 0 0 0 0 0 0 0 0 78 334 417 238 145 244 11 0 11 19 0 0 7 1 11 6 23 49
0 0 0 0 0 0 0 0 0 0 0 0 0 0 0 0 0 0 0 0 0 0 0 0 0 0 0 0 264 128 214 88 94 122 45 65 41 80 13 53 51 2 5 30 82
0 0 0 0 0 0 0 0 0 0 0 0 0 0 0 0 0 0 0 0 0 0 0 0 0 2 0 0 0 0 5 26 29 0 3 102 27 198 180 152 143 95 25 6 44
0 0 0 0 0 0 0 0 0 0 0 0 0 0 0 0 0 0 0 0 0 0 0 0 0 0 9 8 5 293 333 89 0 0 0 4 21 268 283 257 214 158 102 45 76
0 0 0 0 0 0 0 0 0 0 0 0 0 0 0 0 0 0 0 0 0 0 0 0 0 0 4 12 10 143 214 241 0 0 0 0 7 195 315 269 194 155 149 94 53
0 0 0 0 0 0 0 0 0 0 0 0 0 0 0 0 0 0 0 0 0 0 0 0 0 0 0 0 0 275 193 274 230 278 31 0 3 69 288 222 198 225 208 177 117
0 0 0 0 0 0 0 0 0 0 0 0 0 0 0 0 0 0 0 0 0 0 0 0 0 0 5 129 199 194 143 231 341 220 279 350 212 246 179 145 199 205 161 213 228
0 0 0 0 0 0 0 0 0 0 0 0 0 0 0 0 0 0 0 0 0 0 0 0 0 0 1 57 163 70 165 273 326 274 303 115 288 234 224 199 159 96 145 194 284

GFSSW_con_mlcape_138.txt.gz
CAPE
0 0 0 1 1 0 1 1 1 1 0 0 0 0 0 0 0 0 0 0 0 0 0 0 0 0 0 0 14 184 69 54 1 22 89 182 204 275 214 200 62 173 89 168 400
0 0 0 0 0 0 0 0 0 1 1 0 0 0 0 0 0 0 0 0 0 0 0 0 0 0 0 0 0 259 250 127 44 9 70 175 202 168 133 166 227 0 88 269 420
0 0 0 0 0 0 0 0 0 0 0 0 0 0 0 0 0 0 0 0 0 0 0 0 0 0 0 0 0 22 140 133 80 0 33 155 152 150 79 60 100 129 181 247 303
0 0 0 0 0 0 0 0 0 0 0 0 0 0 0 0 0 0 0 0 0 0 0 0 0 0 1 0 0 25 243 145 47 4 28 86 146 157 5 82 30 77 125 155 198
0 0 0 0 0 0 0 0 0 0 0 0 0 0 0 0 0 0 0 0 0 0 0 0 0 0 3 0 43 2 196 188 128 48 90 36 139 166 119 74 0 0 25 102 192
0 0 0 0 0 0 0 0 0 0 0 0 0 0 0 0 0 0 0 0 0 0 0 0 0 0 0 17 231 250 308 324 136 86 17 27 74 143 163 3 1 9 69 252 275
0 0 0 0 0 0 0 0 0 0 0 0 0 0 0 0 0 0 0 0 0 0 0 0 0 0 0 277 432 414 281 369 251 193 131 4 3 29 173 94 45 38 131 226 323
0 0 0 0 0 0 0 0 0 0 0 0 0 0 0 0 0 0 0 0 0 0 0 0 0 0 2 438 361 245 308 175 156 149 105 21 9 25 189 218 157 128 162 233 305
0 0 0 0 0 0 0 0 0 0 0 0 0 0 0 0 0 0 0 0 0 0 0 0 0 0 119 269 173 193 138 114 164 185 72 0 22 32 144 186 162 183 188 233 291
0 0 0 0 0 0 0 0 0 0 0 0 0 0 0 0 0 0 0 0 0 0 0 0 0 0 136 109 68 116 151 155 279 103 72 10 38 28 57 64 106 204 195 204 259
0 0 0 0 0 0 0 0 0 0 0 0 0 0 0 0 0 0 0 0 0 0 0 0 0 0 22 11 19 129 85 80 115 145 65 48 24 31 40 76 93 153 210 201 245
0 0 0 0 0 0 0 0 0 0 0 0 0 0 0 0 0 0 0 0 0 0 0 0 0 0 0 0 0 130 95 118 51 21 42 57 31 79 66 53 50 153 208 275 215
0 0 0 0 0 0 0 0 0 0 0 0 0 0 0 0 0 0 0 0 0 0 0 0 0 0 0 0 0 0 20 98 79 81 19 9 74 33 42 28 41 84 100 154 212
0 0 0 0 0 0 0 0 0 0 0 0 0 0 0 0 0 0 0 0 0 0 0 0 0 0 0 0 0 27 0 76 62 100 35 17 5 0 14 27 91 73 175 133 171
0 0 0 0 0 0 0 0 0 0 0 0 0 0 0 0 0 0 0 0 0 0 0 0 0 0 0 0 0 31 14 98 79 120 29 72 15 76 102 34 40 76 190 152 190
0 0 0 0 0 0 0 0 0 0 0 0 0 0 0 0 0 0 0 0 0 0 0 0 0 0 0 0 0 87 174 203 210 123 49 38 38 39 52 58 47 64 132 182 135
0 0 0 0 0 0 0 0 0 0 0 0 0 0 0 0 0 0 0 0 0 0 0 0 0 0 0 0 0 101 217 174 124 84 90 61 70 16 13 97 103 44 73 109 120
0 0 0 0 0 0 0 0 0 0 0 0 0 0 0 0 0 0 0 0 0 0 0 0 0 0 0 0 0 1 96 76 44 71 64 62 53 25 1 2 93 93 143 64 113
0 0 0 0 0 0 0 0 0 0 0 0 0 0 0 0 0 0 0 0 0 0 0 0 0 0 39 92 174 111 95 72 53 105 23 49 39 22 11 35 66 39 103 26 41
0 0 0 0 0 0 0 0 0 0 0 0 0 0 0 0 0 0 0 0 0 0 0 2 3 0 0 108 233 438 309 123 37 45 24 83 55 14 37 106 45 9 24 106 103
0 0 0 0 0 0 0 0 0 0 0 0 0 0 0 0 0 0 2 0 0 0 0 0 0 15 0 64 207 207 332 273 164 4 71 55 24 260 189 369 131 6 17 98 109
0 0 0 0 0 0 0 0 0 0 0 0 0 0 0 0 0 0 0 0 0 0 0 0 0 15 45 4 8 127 238 199 138 120 59 14 16 482 546 405 258 32 0 11 59
0 0 0 0 0 0 0 0 0 0 0 0 0 0 0 0 0 0 0 0 0 0 0 0 0 1 17 19 60 124 311 252 120 43 5 18 39 516 636 563 500 192 44 0 7
0 0 0 0 0 0 0 0 0 0 0 0 0 0 0 0 0 0 0 0 0 0 0 0 0 0 30 15 19 182 335 454 198 65 26 2 0 224 615 630 474 447 318 105 131
0 0 0 0 0 0 0 0 0 0 0 0 0 0 0 0 0 0 0 0 0 0 0 0 0 0 0 0 17 28 356 367 317 173 137 59 15 36 366 629 482 451 410 344 179
0 0 0 0 0 0 0 0 0 0 0 0 0 0 0 0 0 0 0 0 0 0 0 0 0 0 0 0 31 35 153 340 431 476 395 365 350 639 560 461 447 388 337 358 475
0 0 0 0 0 0 0 0 0 0 0 0 0 0 0 0 0 0 0 0 0 0 0 0 0 0 0 37 45 96 102 181 218 514 429 382 690 785 640 648 300 218 225 231 318

GFSSW_con_mlcape_141.txt.gz
CAPE
0 0 0 0 0 0 0 0 0 0 0 0 0 0 0 0 0 0 0 0 0 0 0 0 0 0 33 20 323 367 33 199 11 98 294 394 369 332 295 255 178 299 176 217 249
0 0 0 0 0 0 0 0 0 0 0 0 0 0 0 0 0 0 0 0 0 0 0 0 0 0 0 2 26 470 320 185 60 35 239 280 250 129 140 107 183 212 169 238 286
0 0 0 0 0 0 0 0 0 0 0 0 0 0 0 0 0 0 0 0 0 0 0 0 0 0 4 31 62 355 386 267 110 6 151 205 168 197 140 129 127 124 220 273 334
0 0 0 0 0 0 0 0 0 0 0 0 0 0 0 0 0 0 0 0 0 0 0 0 0 0 4 76 30 349 366 306 102 18 25 162 187 71 96 134 61 202 239 245 250
0 0 0 0 0 0 0 0 0 0 0 0 0 0 0 0 0 0 0 0 0 0 0 0 0 0 27 43 80 327 432 290 59 5 69 78 255 182 143 12 130 153 160 178 169
0 0 0 0 0 0 0 0 0 0 0 0 0 0 0 0 0 0 0 0 0 0 0 0 0 0 9 42 170 266 439 320 267 174 31 93 121 268 107 30 50 80 84 83 159
0 0 0 0 0 0 0 0 0 0 0 0 0 0 0 0 0 0 0 0 0 0 0 0 0 0 0 89 203 352 227 334 282 215 50 15 20 102 152 45 38 42 97 185 186
0 0 0 0 0 0 0 0 0 0 0 0 0 0 0 0 0 0 0 0 0 0 0 0 0 0 0 153 73 127 188 232 410 253 161 7 7 48 104 102 59 59 126 213 292
0 0 0 0 0 0 0 0 0 0 0 0 0 0 0 0 0 0 0 0 0 0 0 0 0 0 0 62 123 11 79 140 431 311 66 1 8 34 147 269 93 73 164 90 182
0 0 0 0 0 0 0 0 0 0 0 0 0 0 0 0 0 0 0 0 0 0 0 0 0 0 24 58 36 0 104 159 291 173 52 2 8 24 33 154 124 125 109 121 144
0 0 0 0 0 0 0 0 0 0 0 0 0 0 0 0 0 0 0 0 0 0 0 0 0 0 14 78 16 1 58 89 193 166 91 2 20 44 59 61 114 102 153 75 138
0 0 0 0 0 0 0 0 0 0 0 0 0 0 0 0 0 0 0 0 0 0 0 0 0 0 3 23 0 11 86 84 62 172 133 111 89 26 24 35 50 103 39 114 112
0 0 0 0 0 0 0 0 0 0 0 0 0 0 0 0 0 0 0 0 0 0 0 0 0 0 0 0 0 0 64 51 118 93 83 78 86 29 27 23 0 14 52 77 91
0 0 0 0 0 0 0 0 0 0 0 0 0 0 0 0 0 0 0 0 0 0 0 0 0 0 0 0 0 20 7 2 37 62 43 49 58 98 61 16 11 2 22 93 213
0 0 0 0 0 0 0 0 0 0 0 0 0 0 0 0 0 0 0 0 0 0 0 0 0 0 0 0 0 48 44 13 98 67 105 82 18 76 124 13 15 6 62 49 47
0 0 0 0 0 0 0 0 0 0 0 0 0 0 0 0 0 0 0 0 0 0 0 0 0 0 0 0 0 0 3 83 82 82 61 61 5 124 148 87 5 22 59 84 37
0 0 0 0 0 0 0 0 0 0 0 0 0 0 0 0 0 0 0 0 0 0 0 0 0 0 0 0 0 0 22 65 37 79 75 47 1 24 85 36 77 22 107 103 144
0 0 0 0 0 0 0 0 0 0 0 0 0 0 0 0 0 0 0 0 0 0 0 0 0 0 0 0 9 0 35 59 9 40 60 63 64 57 20 61 100 54 17 112 74
0 0 0 0 0 0 0 0 0 0 0 0 0 0 0 0 0 0 0 3 0 0 0 17 0 0 0 0 0 33 0 15 17 52 61 71 35 59 22 89 112 94 96 90 112
0 0 0 0 0 0 0 0 0 0 0 0 0 0 9 3 0 0 0 0 1 0 0 22 0 0 0 0 0 1 70 28 41 68 76 9 41 38 45 64 76 31 43 169 176
0 0 0 0 0 0 0 0 0 0 0 0 0 0 0 3 0 6 23 1 0 6 0 0 1 7 0 0 3 25 4 105 144 102 15 74 15 71 86 210 129 24 15 38 205
0 0 0 0 0 0 0 0 0 0 0 0 0 0 0 2 0 1 0 2 0 0 0 14 0 36 26 24 23 0 3 123 137 146 69 0 0 487 472 415 216 37 28 67 187
0 0 0 0 0 0 0 0 0 0 0 0 0 0 0 0 0 0 0 0 0 0 0 3 0 10 9 28 14 0 0 22 1 0 20 0 0 775 767 754 380 28 18 29 37
0 0 0 0 0 0 0 0 0 0 0 0 0 0 0 0 0 0 0 0 0 0 0 0 0 0 14 2 6 12 45 40 76 0 34 0 119 633 831 866 937 705 85 2 0
0 0 0 0 0 0 0 0 0 0 0 0 0 0 0 1 0 0 0 0 0 0 0 0 0 0 0 0 2 13 0 7 110 69 22 46 4 12 420 882 877 810 703 218 0
0 0 0 0 0 0 0 0 1 0 0 0 0 0 0 0 5 7 1 0 0 0 0 0 0 0 0 0 0 0 8 75 75 67 134 0 96 548 821 783 828 692 659 689 264
0 0 0 0 0 0 0 0 0 0 0 0 0 0 0 0 6 1 0 0 0 0 0 0 0 0 0 0 9 4 2 25 25 46 126 44 550 844 847 795 797 516 379 394 396

GFSSW_con_mlcape_144.txt.gz
CAPE
0 0 0 0 0 0 0 0 0 0 0 0 0 0 0 0 0 0 0 0 0 0 0 0 0 0 0 17 322 52 5 11 77 64 227 135 162 312 0 85 181 232 136 162 148
0 0 0 0 0 0 0 0 0 0 0 0 0 0 0 0 0 0 0 0 0 0 0 0 0 0 0 36 127 289 64 63 71 67 97 238 86 79 79 44 135 135 177 105 168
0 0 0 0 0 0 0 0 0 0 0 0 0 0 0 0 0 0 0 0 0 0 0 0 0 0 0 41 12 193 247 144 43 26 104 149 184 176 58 17 102 116 148 140 150
0 0 0 0 0 0 0 0 0 0 0 0 0 0 0 0 0 0 0 0 0 0 0 0 0 0 0 4 11 227 283 389 118 9 5 183 202 129 163 83 83 143 124 180 156
0 0 0 0 0 0 0 0 0 0 0 0 0 0 0 0 0 0 0 0 0 0 0 0 0 0 0 0 31 198 162 167 124 3 10 64 142 240 82 46 121 174 151 135 135
0 0 0 0 0 0 0 0 0 0 0 0 0 0 0 0 0 0 0 0 0 0 0 0 0 0 0 4 92 10 105 132 25 26 68 40 70 204 59 108 148 95 111 129 123
0 0 0 0 0 0 0 0 0 0 0 0 0 0 0 0 0 0 0 0 0 0 0 0 0 0 0 14 154 161 280 290 355 157 84 6 16 142 169 166 72 100 88 84 78
0 0 0 0 0 0 0 0 0 0 0 0 0 0 0 0 0 0 0 0 0 0 0 0 0 0 0 12 5 32 353 332 281 249 14 4 1 59 99 147 95 60 91 103 45
0 0 0 0 0 0 0 0 0 0 0 0 0 0 0 0 0 0 0 0 0 0 0 0 0 0 0 0 22 34 74 63 1 334 35 9 1 0 53 82 126 129 138 169 24
0 0 0 0 0 0 0 0 0 0 0 0 0 0 0 0 0 0 0 0 0 0 0 0 0 0 0 0 12 10 56 68 18 269 79 3 0 0 5 1 60 87 88 122 150
0 0 0 0 0 0 0 0 0 0 0 0 0 0 0 0 0 0 0 0 0 0 0 0 0 0 0 21 6 68 15 4 170 191 0 0 0 0 0 5 54 87 162 146 182
0 0 0 0 0 0 0 0 0 0 0 0 0 0 0 0 0 0 0 0 0 0 0 0 0 0 0 19 13 76 1 8 205 149 189 55 13 10 0 0 9 13 92 167 78
0 0 0 0 0 0 0 0 0 0 0 0 0 0 0 0 0 0 0 0 0 0 0 0 0 0 0 0 0 17 39 72 87 114 117 190 68 2 0 11 6 2 29 74 74
0 0 0 0 0 0 0 0 0 0 0 0 0 0 0 0 0 0 0 0 0 0 0 0 3 0 0 0 0 0 33 35 49 50 82 62 57 27 0 8 2 0 4 34 55
0 0 0 0 0 0 0 0 0 0 0 0 0 0 0 0 0 0 0 0 0 0 0 0 0 0 0 0 0 1 3 6 1 35 30 33 32 164 1 0 0 0 0 5 13
0 0 0 0 0 0 0 0 0 0 0 0 0 0 0 0 0 0 0 0 0 0 0 0 0 0 0 0 0 0 2 0 4 3 11 27 41 201 61 19 5 6 0 2 4
0 0 0 0 0 0 0 0 0 0 0 0 0 0 0 0 0 0 0 0 0 0 0 0 0 0 0 0 0 0 0 0 0 13 5 85 20 141 125 225 60 27 0 0 1
0 0 0 0 0 0 0 0 0 0 0 0 0 0 0 0 0 0 0 0 0 0 0 1 0 0 0 0 0 0 0 0 0 2 0 8 65 70 9 174 68 20 0 0 31
0 0 0 0 0 0 0 0 0 8 0 0 0 0 0 0 0 0 0 2 0 0 0 21 1 0 0 0 0 6 3 0 0 4 0 12 46 71 82 155 98 11 11 7 75
0 0 0 0 0 0 0 0 0 0 0 0 0 0 0 0 0 0 0 0 0 0 0 0 3 3 0 0 0 0 0 35 55 48 29 137 49 4 114 286 169 86 59 37 89
0 0 0 0 0 0 0 0 0 0 0 0 0 0 0 0 0 0 15 0 0 0 0 0 0 4 0 0 0 6 0 0 40 0 17 78 34 10 9 73 238 4 14 16 115
0 0 0 0 0 0 0 0 0 0 0 0 0 0 0 1 0 0 5 2 0 0 0 0 0 1 5 31 5 0 1 0 5 71 85 46 23 0 0 0 119 100 70 76 266
0 0 0 0 0 0 0 0 0 4 0 0 0 0 0 0 0 0 0 0 0 0 0 0 0 0 2 18 23 14 10 2 17 35 1 0 3 0 0 333 197 119 71 318 240
0 0 0 0 0 0 0 0 0 0 0 0 0 0 0 0 0 0 0 0 0 0 0 0 0 0 0 0 0 10 20 38 5 39 69 5 0 0 0 77 212 132 6 0 85
0 0 0 0 0 0 0 0 10 0 0 0 0 0 0 0 0 0 0 0 0 0 0 0 0 0 0 0 0 0 0 11 17 0 41 7 0 0 0 3 774 396 23 0 0
0 0 0 0 0 1 0 0 3 3 2 0 0 0 0 0 0 6 0 1 0 0 0 0 0 0 0 0 0 0 0 0 0 0 0 0 0 60 66 105 1068 958 814 313 0
0 0 0 0 0 0 0 0 0 2 5 0 0 0 0 0 0 0 0 0 0 0 0 0 0 0 0 0 0 0 0 0 1 0 6 3 166 0 4 8 880 1008 955 1055 919

GFSSW_con_mlcape_147.txt.gz
CAPE
0 0 0 0 0 0 0 0 0 0 0 0 0 0 0 0 0 0 0 0 0 0 0 0 0 0 0 0 198 98 20 21 36 0 4 245 20 116 95 65 24 42 45 415 339
0 0 0 0 0 0 0 0 0 0 0 0 0 0 0 0 0 0 0 0 0 0 0 0 0 0 0 1 214 108 48 166 183 102 10 76 225 230 102 91 76 84 109 496 469
0 0 0 0 0 0 0 0 0 0 0 0 0 0 0 0 0 0 0 0 0 0 0 0 0 0 0 0 252 200 1 164 135 0 0 157 56 226 98 52 44 51 20 159 286
0 0 0 0 0 0 0 0 0 0 0 0 0 0 0 0 0 0 0 0 0 0 0 0 0 0 0 0 139 232 100 228 192 130 179 163 178 91 73 69 33 22 5 76 61
0 0 0 0 0 0 0 0 0 0 0 0 0 0 0 0 0 0 0 0 0 0 0 0 0 0 0 0 158 121 0 172 174 13 118 56 114 78 79 64 56 30 55 90 99
0 0 0 0 0 0 0 0 0 0 0 0 0 0 0 0 0 0 0 0 0 0 0 0 0 0 0 61 85 2 0 82 46 52 88 47 35 127 65 42 28 42 34 101 44
0 0 0 0 0 0 0 0 0 0 0 0 0 0 0 0 0 0 0 0 0 0 0 0 0 0 0 19 134 39 3 51 123 161 59 8 4 34 25 82 26 51 37 71 43
0 0 0 0 0 0 0 0 0 0 0 0 0 0 0 0 0 0 0 0 0 0 0 0 0 0 0 0 57 145 87 51 120 170 67 16 0 0 13 45 47 83 51 57 69
0 0 0 0 0 0 0 0 0 0 0 0 0 0 0 0 0 0 0 0 0 0 0 0 0 0 0 0 1 72 63 10 1 338 19 1 0 0 9 26 21 53 72 67 52
0 0 0 0 0 0 0 0 0 0 0 0 0 0 0 0 0 0 0 0 0 0 0 0 0 0 0 0 0 25 57 5 15 153 52 6 0 0 0 4 19 41 73 11 59
0 0 0 0 0 0 0 0 0 0 0 0 0 0 0 0 0 0 0 0 0 0 0 0 0 0 0 0 43 69 64 11 15 248 0 6 0 0 0 6 0 0 49 48 40
0 0 0 0 0 0 0 0 0 0 0 0 0 0 0 0 0 0 0 0 0 0 0 0 0 0 0 6 92 105 126 108 10 47 30 0 0 0 0 0 0 2 20 36 129
0 0 0 0 0 0 0 0 0 0 0 0 0 0 0 0 0 0 0 0 0 0 0 0 0 0 0 4 97 195 35 6 0 0 44 78 37 0 0 0 0 0 8 54 39
0 0 0 0 0 0 0 0 0 0 0 0 0 0 0 0 0 0 0 0 0 0 0 0 0 0 0 0 0 37 100 72 29 122 82 216 41 6 0 0 0 0 0 0 15
0 0 0 0 0 0 0 0 0 0 0 0 0 0 0 0 0 0 0 0 0 0 0 0 0 0 0 0 0 0 16 46 74 54 124 234 87 105 0 0 0 0 0 2 5
0 0 0 0 0 0 0 0 0 0 0 0 0 0 0 0 0 0 0 0 0 0 0 0 0 0 0 0 0 0 0 0 0 0 0 65 12 100 36 0 0 0 0 0 0
0 0 0 0 0 0 0 0 0 0 0 0 0 0 0 0 0 0 0 0 0 0 0 0 0 0 0 0 0 0 0 0 0 1 20 0 1 7 120 3 0 0 0 0 0
0 0 0 0 0 0 0 0 0 0 3 0 0 0 0 0 0 0 0 0 0 0 0 0 1 0 0 0 0 0 0 0 0 0 0 0 0 46 50 108 131 7 0 0 0
0 0 0 0 0 0 0 0 0 0 0 0 0 0 0 0 0 0 0 0 0 0 0 0 0 0 0 0 0 0 0 7 11 13 8 0 6 16 81 0 116 48 0 0 0
0 0 0 0 0 0 0 0 0 0 0 0 0 0 0 0 0 0 0 0 0 0 0 0 0 0 0 0 0 0 0 0 29 27 0 8 39 44 42 0 0 23 4 1 0
0 0 0 0 0 0 0 0 0 0 0 0 0 0 0 0 0 0 3 0 0 0 0 0 0 0 0 0 0 0 0 0 0 1 0 0 10 22 19 1 0 26 52 7 18
0 0 0 0 0 0 0 0 0 0 0 0 0 0 0 0 0 0 0 0 0 0 0 0 0 0 0 0 0 4 7 0 0 0 0 0 0 2 0 9 1 57 12 88 113
0 0 0 0 0 0 0 0 0 0 0 0 0 0 0 0 0 0 0 0 0 0 0 0 0 0 0 0 0 0 0 3 23 12 0 0 0 0 0 0 12 71 94 537 366
0 0 0 0 0 0 0 0 0 0 0 0 0 0 0 0 0 0 0 0 0 0 0 0 0 0 0 0 0 0 0 1 0 3 0 0 0 13 0 0 75 12 89 184 289
0 0 0 0 0 0 0 0 0 0 0 0 0 0 0 0 0 0 0 0 0 0 0 0 0 0 0 0 0 0 0 0 0 0 0 0 0 0 0 0 25 52 74 126 78
0 0 0 0 0 0 0 0 0 0 0 0 0 0 0 0 0 0 0 0 0 0 0 0 0 0 0 0 0 0 0 0 0 0 0 0 17 131 0 16 23 0 0 99 34
0 0 0 0 0 0 0 0 0 0 0 0 0 0 0 0 0 0 0 0 0 0 0 0 0 0 0 0 0 0 0 0 11 16 24 69 55 27 0 0 0 9 73 411 629